Location: Lombard
(41.8800°N, 88.0080°W)
Time: 10:09:57
(UTC-05:00)

Tiros 1 - Pass Details

Date: 09 February 2023
Orbit: 628 x 662 km, 48.4° (Epoch: 20 March)

Event Time Altitude Azimuth Distance (km) Brightness Sun altitude
Exits shadow 05:27:02 14° 220° (SW) 1,781 9.1 -17.0°
Drops below altitude 10° 05:28:53 10° 196° (SSW) 2,032 9.6 -16.6°
Sets 05:32:13 0° 172° (S) 2,945 10.7 -16.0°
